User: anonymous   Login
Location: Ab? ar R?sh Ba?r?
(24.1861°N, 32.8847°E)
Time: 15:54:59
(UTC+00:00)
Language:

H-2A R/B - Orbit

View from above orbital plane
View from above orbital plane
View from above satellite
View from above satellite

Ground track
Ground track

The orbit data is extracted from the following two-line orbital elements,

1 28932U 06002B   22022.11967059  .00001337  00000-0  12624-3 0  9990
2 28932  98.3111  56.5308 0087056 210.9513 216.1770 14.92905136868313
Epoch (UTC): 22 January 2022 02:52:19
Eccentricity: 0.0087056
inclination: 98.3111°
perigee height: 528 km
apogee height: 649 km
right ascension of ascending node: 56.5308°
argument of perigee: 210.9513°
revolutions per day: 14.92905136
mean anomaly at epoch: 216.1770°
orbit number at epoch: 86831

The dashed part of the orbit path shows where the satellite is in the earth's shadow,  

DLR